Kalamazoo, MI

10:44 AM EDT on August 17, 2017 (GMT -0400)
Kalamazoo-Battle Creek International

Weather History for KAZO - August, 2013

Change the Weather History Date:

Wednesday, August 14, 2013

  Actual Average Record
Temperature  
Mean Temperature 59 °F 71 °F  
Max Temperature 70 °F 81 °F 96 °F (1988)
Min Temperature 47 °F 61 °F 42 °F (1964)
Degree Days  
Heating Degree Days 6 0  
Month to date heating degree days 15 0  
Since 1 June heating degree days 71 53  
Since 1 July heating degree days 32 5  
Cooling Degree Days 0 6  
Month to date cooling degree days 47 96  
Year to date cooling degree days 507 522  
Since 1 June cooling degree days 427 481  
Growing Degree Days 7 (Base 50)    
Moisture  
Dew Point 47 °F    
Average Humidity 69    
Maximum Humidity 93    
Minimum Humidity 45    
Precipitation  
Precipitation 0.00 in 0.14 in 1.01 in (2015)
Month to date precipitation 3.95 1.57  
Year to date precipitation 28.84 21.29  
Sea Level Pressure  
Sea Level Pressure 30.18 in    
Wind  
Wind Speed 5 mph (NNW)    
Max Wind Speed 12 mph    
Max Gust Speed -    
Visibility 10 miles    
Events      
T = Trace of Precipitation, MM = Missing Value Source: NWS Daily Summary

Daily Weather History Graph

Daily Weather History Graph

Search for Another Location

Airport or City:

Trip Planner

Search our weather history database for the weather conditions in past years. The results will help you decide how hot, cold, wet, or windy it might be!

Date:

Astronomy

Aug. 14, 2013 Rise Set
Actual Time 6:48 AM EDT 8:44 PM EDT
Civil Twilight 6:18 AM EDT 9:14 PM EDT
Nautical Twilight 5:41 AM EDT 9:51 PM EDT
Astronomical Twilight 5:01 AM EDT 10:30 PM EDT
Moon 2:56 PM EDT (8/14) 12:10 AM EDT (8/14)
Length of Visible Light 14h 55m
Length of Day
13h 55m
First Quarter, 52% of the Moon is Illuminated
Aug 14
First Quarter
Aug 20
Full
Aug 28
Last Quarter
Sep 5
New
Sep 12
First Quarter

Hourly Weather History & Observations

Time (EDT) Temp. Dew Point Humidity Pressure Visibility Wind Dir Wind Speed Gust Speed Precip Events Conditions
12:53 AM 54.0 °F 45.0 °F 72% 30.14 in 10.0 mi NNW 9.2 mph - N/A   Clear
1:53 AM 50.0 °F 45.0 °F 83% 30.15 in 10.0 mi North 8.1 mph - N/A   Clear
2:53 AM 48.9 °F 44.1 °F 83% 30.14 in 10.0 mi North 5.8 mph - N/A   Clear
3:53 AM 46.9 °F 43.0 °F 86% 30.15 in 10.0 mi North 6.9 mph - N/A   Clear
4:53 AM 46.9 °F 44.1 °F 90% 30.16 in 10.0 mi North 6.9 mph - N/A   Clear
5:53 AM 48.0 °F 44.1 °F 86% 30.17 in 10.0 mi North 3.5 mph - N/A   Clear
6:53 AM 48.0 °F 44.1 °F 86% 30.19 in 10.0 mi North 4.6 mph - N/A   Clear
7:53 AM 51.1 °F 46.0 °F 83% 30.19 in 10.0 mi NNW 4.6 mph - N/A   Clear
8:53 AM 55.9 °F 48.0 °F 75% 30.21 in 10.0 mi North 6.9 mph - N/A   Clear
9:53 AM 60.1 °F 48.9 °F 67% 30.21 in 10.0 mi North 8.1 mph - N/A   Clear
10:53 AM 62.1 °F 48.0 °F 60% 30.22 in 10.0 mi North 6.9 mph - N/A   Scattered Clouds
11:53 AM 64.0 °F 48.0 °F 56% 30.22 in 10.0 mi NNW 4.6 mph - N/A   Scattered Clouds
12:53 PM 64.9 °F 45.0 °F 48% 30.21 in 10.0 mi NNE 4.6 mph - N/A   Scattered Clouds
1:53 PM 66.9 °F 46.0 °F 47% 30.21 in 10.0 mi Calm Calm - N/A   Mostly Cloudy
2:53 PM 66.9 °F 48.0 °F 51% 30.19 in 10.0 mi North 3.5 mph - N/A   Scattered Clouds
3:53 PM 66.9 °F 46.9 °F 49% 30.19 in 10.0 mi WNW 3.5 mph - N/A   Scattered Clouds
4:53 PM 68.0 °F 46.0 °F 45% 30.19 in 10.0 mi Calm Calm - N/A   Mostly Cloudy
5:53 PM 66.9 °F 48.0 °F 51% 30.18 in 10.0 mi West 4.6 mph - N/A   Partly Cloudy
6:53 PM 66.0 °F 46.9 °F 50% 30.17 in 10.0 mi WNW 4.6 mph - N/A   Scattered Clouds
7:53 PM 64.9 °F 51.1 °F 61% 30.17 in 10.0 mi NW 9.2 mph - N/A   Partly Cloudy
8:53 PM 61.0 °F 50.0 °F 67% 30.17 in 10.0 mi NW 8.1 mph - N/A   Partly Cloudy
9:53 PM 57.9 °F 50.0 °F 75% 30.19 in 10.0 mi NW 3.5 mph - N/A   Clear
10:53 PM 55.9 °F 50.0 °F 80% 30.19 in 10.0 mi Calm Calm - N/A   Clear
11:53 PM 52.0 °F 48.9 °F 89% 30.19 in 10.0 mi Calm Calm - N/A   Clear